Location: Marshfield
(37.3390°N, 92.9070°W)
Time: 14:24:34
(UTC-05:00)

OTV 5 (USA 277) - Visible Passes

Search period start: 20 June 2018 00:00
Search period end: 30 June 2018 00:00
Orbit: 313 x 320 km, 54.5° (Epoch: 19 June)

Date Brightness Start Highest point End Pass type
(mag) Time Alt. Az. Time Alt. Az. Time Alt. Az.
20 Jun ? 02:58:01 10° N 02:59:55 17° NE 03:01:26 12° ENE visible
21 Jun ? 21:06:52 10° NW 21:07:18 10° NNW 21:07:45 10° NNW visible
28 Jun ? 00:10:12 10° NNW 00:10:15 10° NNW 00:10:15 10° NNW visible
29 Jun ? 23:05:09 10° N 23:06:27 16° NNE 23:06:27 16° NNE visible
